Regional Weather Roundup
Issued by NWS

Home | Current Version | Previous Version | Graphics & Text | Print | Product List | Glossary On
Versions: 1 2 3 4 5 6 7 8 9 10 11 12 13 14 15 16 17 18 19 20 21 22 23 24 25 26 27 28 29 30 31 32 33 34 35 36 37 38 39 40 41 42 43 44 45 46 47 48 49 50
000
ASUS43 KIND 282059
RWRIN

WEATHER ROUNDUP FOR INDIANA
NATIONAL WEATHER SERVICE INDIANAPOLIS IN
400 PM EST SAT FEB 28 2015

NOTE: "FAIR" INDICATES FEW OR NO CLOUDS BELOW 12,000 FEET WITH NO
SIGNIFICANT WEATHER AND/OR OBSTRUCTIONS TO VISIBILITY.

* - STATION DOES NOT REPORT WEATHER SUCH AS PRECIPITATION OR FOG.

+ - STATION NOT QUALITY CONTROLLED BY THE NATIONAL WEATHER SERVICE.
    USE DATA WITH CAUTION...ESPECIALLY DEWPOINT AND RELATIVE
    HUMIDITY OBSERVATIONS.

INZ001>003-010>013-019-020-282200-
NORTHWEST INDIANA

CITY           SKY/WX    TMP DP  RH WIND       PRES   REMARKS
GARY /AIRPORT/ MOSUNNY   23  -4  30 SE5       30.61F WCI  17
MONTICELLO +   FAIR      23   9  53 E7        30.58F WCI  15
VALPARAISO     NOT AVBL

$$

LMZ046-743>745-282200-
SOUTHERN LAKE MICHIGAN

STATION/POSITION TIME  TEMP WIND        PRES
                       AIR  DIR/SP/G
                 (UTC) (F)  (DEG/KT/KT) (MB)
MICHIGAN CITY    2000   19  170/  7/  9   N/A

$$

INZ004-005-014>016-021>024-282200-
NORTH CENTRAL INDIANA

CITY           SKY/WX    TMP DP  RH WIND       PRES   REMARKS
ELKHART        SUNNY     21  -2  35 CALM      30.61F
GOSHEN         SUNNY     21   4  47 E8        30.60F WCI  11
SOUTH BEND     SUNNY     21   3  45 SE10      30.61F WCI  10

$$

INZ006>009-017-018-025>027-282200-
NORTHEAST INDIANA

CITY           SKY/WX    TMP DP  RH WIND       PRES   REMARKS
ANGOLA *+      SUNNY     18   3  53 SE9       30.61F WCI   6
FORT WAYNE     PTSUNNY   20   4  50 SE8       30.62F WCI  10

$$

INZ028-029-035-036-043>045-051>053-282200-
WEST CENTRAL INDIANA

CITY           SKY/WX    TMP DP  RH WIND       PRES   REMARKS
CRAWFORDSVL +  PTSUNNY   22   2  40 E8        30.55F WCI  13
GREENCASTLE +  PTSUNNY   25   3  39 E9        30.54F WCI  15
LAFAYETTE      SUNNY     24   8  50 SE8       30.57F WCI  15
TERRE HAUTE    CLOUDY    28   6  39 E6        30.54F WCI  22

$$

INZ030>032-037>040-046>048-054>057-064-065-282200-
CENTRAL INDIANA

CITY           SKY/WX    TMP DP  RH WIND       PRES   REMARKS
ANDERSON       SUNNY     25   3  39 SE10      30.59F WCI  15
GREENWOOD *+   FAIR      25   3  39 SE7       30.57F WCI  17
INDIANAPOLIS   CLOUDY    24   6  46 SE10      30.54F WCI  14
-EAGLE CREEK   SUNNY     24   6  46 SE9       30.55F WCI  14
KOKOMO *+      SUNNY     21   9  58 SE12      30.58F WCI   9
MT COMFORT *+  SUNNY     25   0  33 E9        30.58F WCI  15
SHELBYVILLE    SUNNY     25   8  48 E9        30.57F WCI  15

$$

INZ033-034-041-042-049-050-058-059-282200-
EAST CENTRAL INDIANA

CITY           SKY/WX    TMP DP  RH WIND       PRES   REMARKS
MUNCIE         SUNNY     21   7  54 E13       30.58F WCI   9

$$

INZ060-061-067>069-081>083-085>088-282200-
SOUTHWEST INDIANA

CITY           SKY/WX    TMP DP  RH WIND       PRES   REMARKS
EVANSVILLE     CLOUDY    34  15  46 SE6       30.53F WCI  29
HUNTINGBURG *+ CLOUDY    34  16  47 E7        30.53F WCI  28

$$

INZ062-063-066-070>080-084-089>092-282200-
SOUTH CENTRAL AND SOUTHEAST INDIANA

CITY           SKY/WX    TMP DP  RH WIND       PRES   REMARKS
BLOOMINGTON    CLOUDY    28   7  41 SE9       30.52F WCI  19
SEYMOUR +      MOSUNNY   32  12  43 E7        30.56F WCI  26

$$



USA.gov is the U.S. government's official web portal to all federal, state and local government web resources and services.